Tracking 34794 objects as of 19-Jul-2026
HD Live streaming from Space Station
objects crossing your sky now

ONEWEB-0691

Track ONEWEB-0691 now!
10-day predictions
ONEWEB-0691 is classified as:


NORAD ID: 61599
Int'l Code: 2024-188F
Perigee: 1,223.6 km
Apogee: 1,226.1 km
Inclination: 87.9 °
Period: 109.8 minutes
Semi major axis: 7595 km
RCS: Unknown
Launch date: October 20, 2024
Source: United States (US)
Launch site: AIR FORCE WESTERN TEST RANGE (AFWTR)
Your satellite tracking list
Your tracking list is empty




NASA's NSSDC Master Catalog

Two Line Element Set (TLE):
1 61599U 24188F   26199.85904050  .00000518  00000-0  14260-2 0  9990
2 61599  87.8905  14.6696 0001623  81.4329 278.6983 13.11416388 88634
Source of the keplerian elements: AFSPC